Theta_e
283 283 283 282 282 281 281 282 282 282 282 282 283 284 284 284 283 284 285 286 288 290
283 283 282 282 282 281 281 283 283 281 280 281 281 282 282 281 281 281 282 283 285 287
282 282 282 282 282 282 282 282 281 282 282 282 282 281 280 280 280 280 280 282 282 284
280 280 281 280 281 281 281 281 281 281 281 281 281 281 280 279 279 278 279 280 280 281
280 280 279 279 279 280 280 281 280 280 280 280 280 280 279 279 279 278 278 279 279 279
279 279 278 279 280 280 280 280 280 280 280 280 280 279 279 279 279 278 278 278 278 279
277 278 277 278 277 277 277 276 275 276 276 277 277 278 279 279 279 278 278 279 279 279
276 276 275 275 275 275 274 273 273 273 272 272 273 274 274 275 275 277 278 279 279 279
275 275 275 274 273 271 271 270 270 269 269 269 270 273 274 274 272 273 273 274 277 279
273 272 271 270 269 269 268 268 267 267 266 266 267 271 273 273 271 271 270 271 273 276
270 269 268 267 267 266 266 265 265 264 265 264 266 270 271 272 270 269 269 270 271 272
268 266 266 264 264 264 263 263 263 264 263 263 263 268 270 270 268 268 268 269 270 270
266 264 263 263 262 263 262 262 263 262 262 262 261 266 268 269 267 266 267 268 269 272
264 263 262 262 262 261 260 261 260 260 261 261 262 262 268 270 268 267 266 267 268 270
Wind_Speed
6 4 3 3 3 3 2 3 4 5 4 5 6 6 5 5 6 5 5 7 7 8
7 7 6 6 4 3 3 6 7 6 6 5 6 6 6 4 6 5 6 7 6 7
5 6 6 6 7 8 7 8 9 11 13 14 14 9 6 7 6 6 6 6 6 9
6 5 5 5 6 7 6 7 8 9 10 11 12 12 12 12 10 7 9 9 9 11
4 4 4 5 6 6 7 7 8 9 10 11 11 11 11 13 13 13 14 14 12 14
6 6 6 7 8 9 10 11 12 12 13 14 14 13 12 12 14 14 15 15 15 15
5 6 6 7 7 6 9 12 13 13 15 15 16 17 16 15 15 15 15 16 16 16
7 8 8 8 9 11 12 13 14 15 15 15 14 11 16 18 19 19 18 18 18 17
9 8 9 10 12 14 14 13 14 15 15 16 12 23 28 24 17 19 20 21 20 18
8 9 10 12 13 13 14 14 14 14 15 16 15 26 28 29 17 17 18 20 20 19
8 10 12 13 13 14 13 14 14 14 15 15 13 26 29 30 19 16 18 19 19 21
9 11 12 14 14 13 14 13 14 14 15 15 15 26 28 26 16 16 17 17 17 18
9 10 13 14 14 13 12 15 12 14 14 17 16 24 28 24 13 15 13 15 16 23
10 12 12 14 12 13 14 14 14 15 13 14 15 17 27 28 15 13 13 13 12 12
Wind_Direction
59 56 55 46 22 1 328 320 309 319 310 307 309 312 320 320 317 313 308 291 284 279
15 19 8 4 8 344 328 337 339 321 313 302 289 290 294 276 281 293 297 294 284 277
323 321 322 329 321 324 321 329 329 322 321 323 321 316 300 295 285 282 285 283 277 279
290 306 301 295 289 277 278 275 274 277 282 288 297 305 306 302 296 279 288 280 264 269
308 307 292 272 267 268 273 284 283 287 286 287 282 279 276 287 296 300 298 293 286 280
351 347 335 323 324 322 320 323 320 314 309 306 302 294 291 285 286 281 277 278 283 282
335 329 318 316 317 330 330 319 315 313 308 309 310 308 307 293 283 276 271 270 269 272
331 328 323 326 330 321 319 317 316 315 310 308 304 304 308 304 300 297 293 281 270 266
324 322 324 321 319 315 312 313 311 307 306 307 304 308 308 304 297 293 291 287 286 285
319 319 316 313 311 308 310 308 305 305 304 301 304 305 305 306 299 296 292 291 291 285
319 311 313 310 307 307 305 305 304 301 299 295 295 300 303 302 296 294 293 292 290 290
313 307 306 304 305 306 303 300 298 293 295 294 292 298 300 302 295 289 289 287 287 289
303 299 298 300 303 300 296 294 296 292 291 289 290 295 299 302 292 290 290 287 287 287
301 298 295 294 296 299 297 296 294 291 289 288 286 286 295 298 294 290 287 283 286 285